Home > Weather > Seeb > Past weeks

Flag for Oman Past Weather in Seeb, Oman — Yesterday and Last 2 Weeks

Now
82 °F

Clear.


Feels Like: 91 °F
Forecast: 85 / 91 °F
Wind: 2 mph from Northwest

Location: International Airport

Current Time: Jul 27, 2016 at 5:21:26 AM

Latest Report: Jul 27, 2016 at 3:50 AM


Visibility: 5 mi

Pressure: 29.50 "Hg

Humidity: 84%

Dew Point: 77 °F

Location of SeebLocation

Past Weather in Seeb — Graph

°F

Seeb Temperature Yesterday

Maximum temperature yesterday: 93 °F (at 12:50 PM)
Minimum temperature yesterday: 84 °F (at 3:50 AM)
Average temperature yesterday: 87 °F

High & Low Weather Summary for the Past Weeks

 TemperatureHumidityPressure
High108 °F (Jul 22, 11:50 PM)94% (Jul 21, 1:50 AM)29.62 "Hg (Jul 21, 1:50 AM)
Low82 °F (Jul 27, 12:50 AM)17% (Jul 22, 11:50 PM)29.36 "Hg (Jul 12, 3:50 AM)
Average91 °F73%29.48 "Hg
* Reported Jul 12 3:50 AM — Jul 27 3:50 AM, Seeb, Weather by CustomWeather, © 2016

Note: Actual official high and low records may vary slightly from our data, if they occured in-between our weather recording intervals... More about our weather records

Advertising

Seeb Weather History for the Previous 24 Hours

Scroll right to see more
 ConditionsComfort  
Time TempWeatherWind HumidityBarometerVisibility
3:50 AM
Wed, Jul 27
82 °FClear.2 mph84%29.50 "Hg5 mi
2:50 AM82 °FClear.3 mph84%29.50 "Hg6 mi
1:50 AM82 °FClear.6 mph84%29.50 "Hg5 mi
12:50 AM82 °FClear.7 mph84%29.50 "Hg6 mi
11:50 PM
Tue, Jul 26
86 °FClear.2 mph70%29.53 "Hg6 mi
10:50 PM86 °FClear.7 mph70%29.53 "Hg5 mi
9:50 PM86 °FClear.9 mph70%29.53 "Hg5 mi
8:50 PM86 °FClear.14 mph70%29.50 "Hg5 mi
7:50 PM86 °FClear.9 mph70%29.50 "Hg5 mi
6:50 PM86 °FClear.13 mph70%29.50 "Hg5 mi
5:50 PM88 °FClear.15 mph70%29.47 "Hg5 mi
4:50 PM88 °FClear.16 mph66%29.47 "Hg5 mi
3:50 PM88 °FClear.17 mph66%29.50 "Hg5 mi
2:50 PM88 °FClear.21 mph70%29.50 "Hg5 mi
1:50 PM88 °FPartly sunny.21 mph70%29.53 "Hg5 mi
12:50 PM93 °FPartly sunny.15 mph56%29.53 "Hg5 mi
11:50 AM91 °FPartly sunny.12 mph59%29.56 "Hg5 mi
10:50 AM90 °FPartly sunny.12 mph71%29.59 "Hg5 mi
9:50 AM90 °FPartly sunny.10 mph71%29.59 "Hg5 mi
8:50 AM91 °FClear.6 mph67%29.59 "Hg5 mi
7:50 AM88 °FClear.6 mph75%29.59 "Hg5 mi
6:50 AM86 °FScattered clouds.5 mph79%29.56 "Hg5 mi
5:50 AM84 °FPassing clouds.6 mph84%29.56 "Hg5 mi
Weather by CustomWeather, © 2016

See weather overviewHow to use our weather pages